Location: ??
(35.4032°N, 139.3073°E)
Time: 16:09:11
(UTC+00:00)

Cosmos 2219 Rocket - Pass Details

Date: 13 April 2024
Orbit: 827 x 846 km, 71.0° (Epoch: 29 May)

Event Time Altitude Azimuth Distance (km) Brightness Sun altitude
Exits shadow 17:41:12 17° 322° (NW) 1,982 4.1 -28.6°
Drops below altitude 10° 17:43:39 10° 347° (NNW) 2,435 4.8 -28.2°
Sets 17:46:53 0° 6° (N) 3,372 5.9 -27.7°
